Findlay, OH

1:18 AM EST on November 22, 2017 (GMT -0500)
Findlay

Weather History for KFDY - December, 2013

Change the Weather History Date:

Monday, December 16, 2013

  Actual Average Record
Temperature  
Mean Temperature 15 °F -  
Max Temperature 23 °F 35 °F 61 °F (1984)
Min Temperature 9 °F 24 °F -10 °F (1951)
Degree Days  
Heating Degree Days 50    
Moisture  
Dew Point 13 °F    
Average Humidity 81    
Maximum Humidity 96    
Minimum Humidity 63    
Precipitation  
Precipitation 0.06 in - - ()
Sea Level Pressure  
Sea Level Pressure 30.07 in    
Wind  
Wind Speed 7 mph (SE)    
Max Wind Speed 13 mph    
Max Gust Speed -    
Visibility 6 miles    
Events Fog , Snow    
Averages and records for this station are not official NWS values.
T = Trace of Precipitation, MM = Missing Value Source: NWS Daily Summary

Daily Weather History Graph

Daily Weather History Graph

Search for Another Location

Airport or City:

Trip Planner

Search our weather history database for the weather conditions in past years. The results will help you decide how hot, cold, wet, or windy it might be!

Date:

Astronomy

Dec. 16, 2013 Rise Set
Actual Time 7:53 AM EST 5:07 PM EST
Civil Twilight 7:22 AM EST 5:38 PM EST
Nautical Twilight 6:47 AM EST 6:13 PM EST
Astronomical Twilight 6:14 AM EST 6:46 PM EST
Moon 4:57 PM EST (12/16) 7:00 AM EST (12/16)
Length of Visible Light 10h 16m
Length of Day
9h 14m
Full, 100% of the Moon is Illuminated
Dec 16
Full
Dec 17
Full
Dec 25
Last Quarter
Jan 1
New
Jan 7
First Quarter

Hourly Weather History & Observations

Time (EST) Temp. Windchill Dew Point Humidity Pressure Visibility Wind Dir Wind Speed Gust Speed Precip Events Conditions
12:53 AM 12.0 °F -2.7 °F 5.0 °F 73% 30.10 in 10.0 mi WSW 12.7 mph - N/A   Clear
1:53 AM 12.0 °F -2.0 °F 6.1 °F 77% 30.11 in 10.0 mi West 11.5 mph - N/A   Clear
2:53 AM 12.0 °F -0.4 °F 6.1 °F 77% 30.12 in 10.0 mi West 9.2 mph - N/A   Partly Cloudy
3:53 AM 12.9 °F -0.2 °F 7.0 °F 77% 30.12 in 10.0 mi West 10.4 mph - N/A   Overcast
4:53 AM 12.9 °F 1.6 °F 7.0 °F 77% 30.13 in 10.0 mi WSW 8.1 mph - N/A   Overcast
5:53 AM 12.9 °F 2.6 °F 8.1 °F 81% 30.13 in 10.0 mi WSW 6.9 mph - N/A   Overcast
6:53 AM 12.9 °F 6.9 °F 9.0 °F 84% 30.15 in 8.0 mi SW 3.5 mph - N/A   Overcast
7:53 AM 12.0 °F 4.1 °F 8.1 °F 84% 30.16 in 8.0 mi SW 4.6 mph - N/A   Mostly Cloudy
8:53 AM 9.0 °F - 7.0 °F 92% 30.17 in 5.0 mi Calm Calm - N/A   Partly Cloudy
9:53 AM 12.9 °F - 10.0 °F 88% 30.18 in 5.0 mi Calm Calm - N/A   Mostly Cloudy
10:53 AM 15.1 °F - 10.9 °F 84% 30.19 in 7.0 mi Calm Calm - N/A   Clear
11:53 AM 17.1 °F - 10.9 °F 77% 30.17 in 10.0 mi Calm Calm - N/A   Overcast
12:53 PM 19.0 °F 10.0 °F 10.0 °F 68% 30.13 in 10.0 mi ENE 6.9 mph - N/A   Overcast
1:53 PM 19.0 °F 8.2 °F 9.0 °F 65% 30.12 in 10.0 mi East 9.2 mph - N/A   Overcast
2:18 PM 19.4 °F 9.5 °F 8.6 °F 63% 30.08 in 10.0 mi ENE 8.1 mph - N/A   Overcast
2:53 PM 19.0 °F 11.1 °F 10.0 °F 68% 30.11 in 10.0 mi East 5.8 mph - N/A   Overcast
3:53 PM 19.9 °F 8.6 °F 10.9 °F 68% 30.09 in 10.0 mi ESE 10.4 mph - N/A   Overcast
4:16 PM 19.4 °F 8.6 °F 10.4 °F 68% 30.05 in 10.0 mi SE 9.2 mph - N/A   Overcast
4:43 PM 19.4 °F 10.4 °F 10.4 °F 68% 30.06 in 10.0 mi SE 6.9 mph - N/A   Overcast
4:53 PM 19.9 °F 11.1 °F 10.9 °F 68% 30.09 in 10.0 mi SE 6.9 mph - N/A   Overcast
5:53 PM 19.9 °F 11.1 °F 12.0 °F 71% 30.08 in 10.0 mi ESE 6.9 mph - N/A   Overcast
6:05 PM 19.4 °F 10.4 °F 12.2 °F 74% 30.04 in 10.0 mi ESE 6.9 mph - N/A   Overcast
6:53 PM 19.9 °F 11.1 °F 12.9 °F 74% 30.08 in 10.0 mi ESE 6.9 mph - N/A   Overcast
7:53 PM 19.9 °F 12.1 °F 15.1 °F 81% 30.07 in 4.0 mi East 5.8 mph - 0.00 in Snow Light Snow
8:44 PM 19.4 °F 11.5 °F 15.8 °F 86% 30.02 in 1.8 mi East 5.8 mph - 0.00 in Snow Light Snow
8:53 PM 19.9 °F 12.1 °F 17.1 °F 89% 30.05 in 1.0 mi East 5.8 mph - 0.00 in Snow Light Snow
8:57 PM 19.4 °F 12.8 °F 17.6 °F 93% 30.01 in 0.8 mi East 4.6 mph - 0.00 in Snow Light Snow
9:12 PM 19.4 °F 11.5 °F 17.6 °F 93% 29.99 in 0.5 mi East 5.8 mph - 0.03 in Fog , Snow Snow
9:29 PM 19.4 °F 11.5 °F 17.6 °F 93% 29.99 in 1.0 mi East 5.8 mph - 0.04 in Snow Light Snow
9:42 PM 19.4 °F 12.8 °F 17.6 °F 93% 29.98 in 1.5 mi East 4.6 mph - 0.04 in Snow Light Snow
9:53 PM 21.0 °F 14.6 °F 18.0 °F 88% 30.01 in 2.0 mi East 4.6 mph - 0.05 in Snow Light Snow
10:04 PM 21.2 °F 14.9 °F 17.6 °F 86% 29.98 in 1.2 mi East 4.6 mph - 0.00 in Snow Light Snow
10:33 PM 21.2 °F 14.9 °F 19.4 °F 93% 29.98 in 2.0 mi ESE 4.6 mph - 0.01 in Snow Light Snow
10:43 PM 21.2 °F 14.9 °F 19.4 °F 93% 29.98 in 4.0 mi ESE 4.6 mph - 0.01 in Snow Light Snow
10:53 PM 21.9 °F 15.7 °F 19.0 °F 89% 30.00 in 5.0 mi SE 4.6 mph - 0.01 in   Overcast
11:02 PM 21.2 °F 14.9 °F 19.4 °F 93% 29.97 in 2.5 mi SE 4.6 mph - N/A   Overcast
11:14 PM 21.2 °F 13.6 °F 19.4 °F 93% 29.97 in 1.8 mi SSE 5.8 mph - 0.00 in Snow Light Snow
11:53 PM 23.0 °F 17.0 °F 21.9 °F 96% 29.99 in 1.5 mi South 4.6 mph - 0.00 in   Overcast